Location: B?jaj?g
(11.7167°N, 92.6667°E)
Time: 02:10:38
(UTC+00:00)

NOSS 2-2 (D) - Pass Details

Date: 18 September 2020
Orbit: 469 x 1739 km, 63.3° (Epoch: 23 October)

Event Time Altitude Azimuth Distance (km) Brightness Sun altitude
Rises 11:59:09 0° 212° (SSW) 2,999 7.5 -3.6°
Reaches altitude 10° 12:01:43 10° 217° (SW) 1,932 6.6 -4.2°
Maximum altitude 12:05:47 51° 293° (WNW) 657 4.3 -5.2°
Drops below altitude 10° 12:09:14 10° 11° (N) 1,643 5.7 -6.0°
Sets 12:11:17 0° 16° (NNE) 2,495 6.5 -6.5°
